Location: Tierra del Sol
(32.6128°N, 116.3319°W)
Time: 06:55:43
(UTC-07:00)

Envisat - Visible Passes

Search period start: 23 September 2018 00:00
Search period end: 03 October 2018 00:00
Orbit: 764 x 766 km, 98.2° (Epoch: 22 September)

Date Brightness Start Highest point End Pass type
(mag) Time Alt. Az. Time Alt. Az. Time Alt. Az.
23 Sep 3.0 19:35:32 10° SSE 19:40:30 58° ENE 19:45:29 10° N visible
23 Sep 5.9 21:17:47 10° WSW 21:19:48 12° W 21:21:49 10° WNW visible
24 Sep 4.1 18:59:57 10° ESE 19:04:00 25° ENE 19:08:03 10° NNE visible
24 Sep 4.7 20:38:23 10° SSW 20:42:49 30° W 20:47:17 10° NW visible
25 Sep 3.1 20:00:57 10° S 20:06:00 75° WSW 20:11:06 10° NNW visible
26 Sep 3.3 19:24:34 10° SE 19:29:22 45° ENE 19:34:11 10° N visible
26 Sep 5.6 21:05:25 10° SW 21:08:32 16° W 21:11:39 10° NW visible
27 Sep 4.3 20:26:52 10° SSW 20:31:35 39° W 20:36:21 10° NNW visible
28 Sep 2.9 19:49:46 10° SSE 19:54:50 84° ENE 19:59:56 10° N visible
29 Sep 3.6 19:13:42 10° SE 19:18:15 34° ENE 19:22:49 10° N visible
29 Sep 5.3 20:53:28 10° SW 20:57:16 21° W 21:01:06 10° NW visible
30 Sep 3.7 20:15:28 10° S 20:20:23 52° W 20:25:21 10° NNW visible
01 Oct 2.9 19:38:41 10° SSE 19:43:41 65° ENE 19:48:43 10° N visible
01 Oct 6.0 21:21:49 10° WSW 21:23:03 11° W 21:24:16 10° WNW visible
02 Oct 3.9 19:02:57 10° SE 19:07:09 27° ENE 19:11:22 10° NNE visible
02 Oct 4.9 20:41:46 10° SSW 20:46:02 27° W 20:50:20 10° NW visible
